Year,Month,Day,Hour,Minute,Value (Times are PST for temperature in C)
2013,01,18,12,31,4.20
2013,01,18,12,32,4.20
2013,01,18,12,33,4.20
2013,01,18,12,34,4.20
2013,01,18,12,35,4.30
2013,01,18,12,36,4.30
2013,01,18,12,37,4.30
2013,01,18,12,38,4.40
2013,01,18,12,39,4.50
2013,01,18,12,40,4.50
2013,01,18,12,41,4.50
2013,01,18,12,42,4.60
2013,01,18,12,43,4.60
2013,01,18,12,44,4.60
2013,01,18,12,45,4.70
2013,01,18,12,46,4.70
2013,01,18,12,47,4.60
2013,01,18,12,48,4.60
2013,01,18,12,49,4.60
2013,01,18,12,50,4.60
2013,01,18,12,51,4.60
2013,01,18,12,52,4.60
2013,01,18,12,53,4.60
2013,01,18,12,54,4.60
2013,01,18,12,55,4.60
2013,01,18,12,56,4.60
2013,01,18,12,57,4.60
2013,01,18,12,58,4.60
2013,01,18,12,59,4.60
2013,01,18,13,00,4.60
2013,01,18,13,01,4.60
2013,01,18,13,02,4.60
2013,01,18,13,03,4.70
2013,01,18,13,04,4.70
2013,01,18,13,05,4.70
2013,01,18,13,06,4.80
2013,01,18,13,07,4.90
2013,01,18,13,08,4.90
2013,01,18,13,09,4.90
2013,01,18,13,10,4.90
2013,01,18,13,11,4.90
2013,01,18,13,12,4.90
2013,01,18,13,13,4.90
2013,01,18,13,14,4.90
2013,01,18,13,15,4.90
2013,01,18,13,16,4.90
2013,01,18,13,17,4.90
2013,01,18,13,18,4.90
2013,01,18,13,19,4.90
2013,01,18,13,20,4.90
2013,01,18,13,21,4.90
2013,01,18,13,22,4.90
2013,01,18,13,23,4.90
2013,01,18,13,24,5.00
2013,01,18,13,25,5.10
2013,01,18,13,26,5.10
2013,01,18,13,27,5.10
2013,01,18,13,28,5.10
2013,01,18,13,29,5.10
2013,01,18,13,30,5.10
2013,01,18,13,31,5.10
2013,01,18,13,32,5.20
2013,01,18,13,33,5.20
2013,01,18,13,34,5.20
2013,01,18,13,35,5.20
2013,01,18,13,36,5.20
2013,01,18,13,37,5.20
2013,01,18,13,38,5.30
2013,01,18,13,39,5.30
2013,01,18,13,40,5.30
2013,01,18,13,41,5.30
2013,01,18,13,42,5.30
2013,01,18,13,43,5.30
2013,01,18,13,44,5.30
2013,01,18,13,45,5.30
2013,01,18,13,46,5.30
2013,01,18,13,47,5.30
2013,01,18,13,48,5.30
2013,01,18,13,49,5.30
2013,01,18,13,50,5.30
2013,01,18,13,51,5.30
2013,01,18,13,52,5.30
2013,01,18,13,53,5.30
2013,01,18,13,54,5.30
2013,01,18,13,55,5.40
2013,01,18,13,56,5.40
2013,01,18,13,57,5.40
2013,01,18,13,58,5.30
2013,01,18,13,59,5.30
2013,01,18,14,00,5.30
2013,01,18,14,01,5.20
2013,01,18,14,02,5.20
2013,01,18,14,03,5.10
2013,01,18,14,04,5.10
2013,01,18,14,05,5.10
2013,01,18,14,06,5.00
2013,01,18,14,07,4.90
2013,01,18,14,08,4.90
2013,01,18,14,09,4.90
2013,01,18,14,10,5.00
2013,01,18,14,11,5.10
2013,01,18,14,12,5.10
2013,01,18,14,13,5.20
2013,01,18,14,14,5.30
2013,01,18,14,15,5.30
2013,01,18,14,16,5.40
2013,01,18,14,17,5.40
2013,01,18,14,18,5.50
2013,01,18,14,19,5.50
2013,01,18,14,20,5.40
2013,01,18,14,21,5.40
2013,01,18,14,22,5.50
2013,01,18,14,23,5.50
2013,01,18,14,24,5.60
2013,01,18,14,25,5.60
2013,01,18,14,26,5.70
2013,01,18,14,27,5.70
2013,01,18,14,28,5.70
2013,01,18,14,29,5.60
2013,01,18,14,30,5.50
2013,01,18,14,31,5.40
2013,01,18,14,32,5.30
2013,01,18,14,33,5.30
2013,01,18,14,34,5.30
2013,01,18,14,35,5.30
2013,01,18,14,36,5.30
2013,01,18,14,37,5.30
2013,01,18,14,38,5.40
2013,01,18,14,39,5.50
2013,01,18,14,40,5.50
2013,01,18,14,41,5.60
2013,01,18,14,42,5.60
2013,01,18,14,43,5.70
2013,01,18,14,44,5.70
2013,01,18,14,45,5.70
2013,01,18,14,46,5.70
2013,01,18,14,47,5.80
2013,01,18,14,48,5.80
2013,01,18,14,49,5.70
2013,01,18,14,50,5.70
2013,01,18,14,51,5.70
2013,01,18,14,52,5.70
2013,01,18,14,53,5.60
2013,01,18,14,54,5.60
2013,01,18,14,55,5.60
2013,01,18,14,56,5.60
2013,01,18,14,57,5.60
2013,01,18,14,58,5.70
2013,01,18,14,59,5.60
2013,01,18,15,00,5.60
2013,01,18,15,01,5.60
2013,01,18,15,02,5.60
2013,01,18,15,03,5.60
2013,01,18,15,04,5.50
2013,01,18,15,05,5.50
2013,01,18,15,06,5.50
2013,01,18,15,07,5.50
2013,01,18,15,08,5.50
2013,01,18,15,09,5.50
2013,01,18,15,10,5.50
2013,01,18,15,11,5.40
2013,01,18,15,12,5.50
2013,01,18,15,13,5.50
2013,01,18,15,14,5.40
2013,01,18,15,15,5.40
2013,01,18,15,16,5.30
2013,01,18,15,17,5.20
2013,01,18,15,18,5.10
2013,01,18,15,19,5.10
2013,01,18,15,20,5.10
2013,01,18,15,21,5.10
2013,01,18,15,22,4.90
2013,01,18,15,23,4.90
2013,01,18,15,24,4.90
2013,01,18,15,25,4.90
2013,01,18,15,26,4.90
2013,01,18,15,27,4.90
2013,01,18,15,28,4.90
2013,01,18,15,29,4.90
2013,01,18,15,30,4.90
2013,01,18,15,31,4.90
2013,01,18,15,32,4.90
2013,01,18,15,33,4.90
2013,01,18,15,34,4.90
2013,01,18,15,35,4.90
2013,01,18,15,36,4.90
2013,01,18,15,37,4.90
2013,01,18,15,38,4.90
2013,01,18,15,39,4.80
2013,01,18,15,40,4.70
2013,01,18,15,41,4.70
2013,01,18,15,42,4.70
2013,01,18,15,43,4.60
2013,01,18,15,44,4.60
2013,01,18,15,45,4.60
2013,01,18,15,46,4.60
2013,01,18,15,47,4.60
2013,01,18,15,48,4.50
2013,01,18,15,49,4.50
2013,01,18,15,50,4.40
2013,01,18,15,51,4.40
2013,01,18,15,52,4.40
2013,01,18,15,53,4.40
2013,01,18,15,54,4.40
2013,01,18,15,55,4.40
2013,01,18,15,56,4.50
2013,01,18,15,57,4.40
2013,01,18,15,58,4.50
2013,01,18,15,59,4.50
2013,01,18,16,00,4.50
2013,01,18,16,01,4.40
2013,01,18,16,02,4.40
2013,01,18,16,03,4.40
2013,01,18,16,04,4.40
2013,01,18,16,05,4.40
2013,01,18,16,06,4.40
2013,01,18,16,07,4.40
2013,01,18,16,08,4.40
2013,01,18,16,09,4.30
2013,01,18,16,10,4.30
2013,01,18,16,11,4.30
2013,01,18,16,12,4.30
2013,01,18,16,13,4.30
2013,01,18,16,14,4.30
2013,01,18,16,15,4.30
2013,01,18,16,16,4.30
2013,01,18,16,17,4.30
2013,01,18,16,18,4.30
2013,01,18,16,19,4.30
2013,01,18,16,20,4.30
2013,01,18,16,21,4.30
